GPS BIIF-5 (39533 NORAD) Tracking and Keplerian Element Data

This shows tracking and keplerian element data for the satellite.

Feedback or suggestion? Click here.




ElementValue
Catalog39533
NameGPS BIIF-5
Epoch Orbit4832
Epoch Day297.05791477
Epoch Year2020
RAAN233.5241
Inclination53.732
Eccentricity0.0048396
Argument of Perigee201.4667
Mean Anonmoly158.331
Mean Motion2.00574337
Decay Rate-2.1E-07
L11 39533U 14008A 20297.05791477 -.00000021 00000-0 00000-0 0 9990
L22 39533 53.7320 233.5241 0048396 201.4667 158.3310 2.00574337 48320

Live tracking and technical data element details for GPS BIIF-5 (NORAD 39533). GPS BIIF-5 can be tracked NOW for your location showing map with azimuth and elevation plus other details from your city location.

Track the satellite on the map from your city or location and see movement details for azimuth, elevation, latitude, longitude, range, height, and movement on the map or in text.







IsCatalogInMostPopularTable: catalog: 39533, numindb: 500
Update: records affected: 1



GetName: 39533 GPS BIIF-5

Hit Count: updated at: Sat, 24 Oct 2020 18:05:37 GMT